Temp
70 73 68 68 58 52 44 48 50 53 53 57 60 59 57 56 56 51 63 67 68 69 71 73 74 76 76 75 75 75 76 77 76 76 76 76 76 75 75 75 75 76 76 76 76 75 74 74 75
72 74 68 59 51 45 46 49 52 54 58 59 58 57 56 53 60 60 63 68 69 70 71 71 73 75 75 75 75 75 76 76 77 76 76 75 75 76 75 75 75 76 76 76 75 75 73 73 74
74 73 63 54 46 45 47 51 52 55 58 58 55 57 57 56 59 62 65 68 69 69 70 71 72 74 75 75 75 75 75 76 76 76 76 75 75 75 75 74 75 75 75 75 75 74 73 72 73
68 68 62 52 47 49 50 54 56 55 57 59 57 54 58 64 63 66 68 69 68 68 69 70 73 74 74 74 74 74 75 75 76 76 76 75 74 74 74 74 74 75 75 74 73 73 72 71 71
65 60 51 48 46 50 54 57 58 56 55 56 58 53 55 63 66 67 67 68 67 68 68 69 72 73 74 74 74 74 74 75 75 75 75 74 74 73 73 73 74 74 74 73 73 72 71 70 71
60 57 47 43 47 53 54 57 58 57 56 56 56 56 57 63 64 65 67 66 67 68 68 69 68 70 72 73 73 73 74 74 74 74 74 74 74 73 73 73 73 74 74 73 72 71 70 70 70
55 51 46 45 47 51 56 60 57 57 56 56 60 54 58 60 64 65 65 65 66 67 69 67 68 68 68 69 70 71 72 72 73 73 73 72 72 72 72 71 73 73 73 72 71 70 69 69 69
55 53 45 45 48 50 56 58 59 60 59 60 62 56 54 60 64 65 65 65 65 66 69 68 66 66 67 67 66 67 69 70 70 70 68 67 68 69 69 68 70 72 72 71 70 69 69 69 68
57 48 45 47 49 52 56 56 58 60 60 59 61 59 61 63 63 63 63 64 65 66 68 69 67 65 65 65 65 64 66 66 67 66 65 63 62 63 64 64 68 70 70 70 69 69 68 67 65
52 46 49 53 53 52 56 56 58 56 56 57 59 61 62 62 62 61 61 63 64 65 66 67 67 64 64 67 64 64 64 64 63 63 62 61 60 60 62 61 64 66 67 68 69 68 66 63 57
50 47 52 55 57 57 56 56 57 56 53 60 61 60 59 58 60 61 61 63 65 67 67 67 66 64 64 64 63 62 62 61 61 61 60 60 60 58 58 58 58 58 59 60 62 60 59 58 57
47 53 54 56 57 56 54 57 56 56 58 62 60 60 60 59 60 61 61 61 61 62 64 64 64 64 63 63 63 63 63 60 59 59 60 58 57 56 56 56 57 57 58 57 57 57 57 57 57
49 52 55 57 55 54 55 55 56 55 61 61 61 61 60 60 60 62 63 62 62 62 63 64 64 64 64 62 62 62 65 63 60 59 59 58 57 56 56 56 56 56 56 56 55 55 55 55 55
52 53 52 54 55 54 52 52 53 55 59 60 60 60 59 59 61 59 60 61 60 64 64 65 64 65 64 63 62 62 65 65 61 60 59 58 58 56 56 55 55 55 56 56 55 55 54 54 55
51 47 49 49 53 53 53 49 48 56 56 58 58 58 58 59 60 60 63 62 64 64 66 64 64 65 64 64 63 63 62 64 63 61 60 59 58 57 57 56 55 56 55 55 54 54 54 54 55
45 44 39 47 52 54 55 46 50 55 54 55 56 55 56 57 59 60 62 63 64 65 63 66 67 65 64 64 63 63 62 62 62 62 61 60 60 59 57 56 56 56 55 54 53 54 53 53 53
39 32 37 43 51 50 49 43 49 52 51 51 52 54 55 55 57 59 60 60 64 65 67 65 65 65 64 65 64 63 63 62 62 62 61 61 61 60 60 58 58 56 55 54 54 54 53 53 53
33 33 37 37 44 46 44 44 49 51 50 50 50 52 53 55 57 61 61 62 62 64 65 66 65 66 65 65 64 62 61 61 62 61 62 61 61 61 60 60 58 57 56 55 54 54 53 53 52
39 36 37 37 45 43 42 44 51 52 47 48 52 49 50 54 61 61 61 61 60 60 61 64 65 65 64 63 60 60 60 60 61 61 62 62 62 61 60 61 58 57 58 57 56 54 54 53 51
38 35 34 40 44 43 40 41 47 49 49 50 51 50 50 52 55 59 60 59 60 61 61 63 65 66 65 66 65 65 64 64 63 62 62 62 62 62 61 61 60 58 58 57 57 55 54 53 52
40 38 34 36 41 41 40 42 42 47 46 49 51 52 53 53 56 57 58 58 57 57 59 62 64 66 66 67 65 61 59 58 59 61 60 61 62 61 61 61 62 59 59 59 57 56 55 55 51
35 43 40 39 37 30 38 29 39 40 44 46 49 49 50 53 54 54 56 56 57 58 59 61 63 65 66 65 64 63 63 61 64 63 62 61 61 61 61 62 61 62 59 60 59 58 58 56 56
38 44 42 38 35 33 34 29 33 38 40 45 48 50 51 51 53 54 54 55 56 56 56 58 61 62 64 64 66 63 62 64 64 61 60 59 58 60 61 61 61 61 61 60 60 58 56 58 58
43 39 37 36 40 30 36 32 37 42 41 44 49 52 50 50 51 51 54 54 53 54 54 56 58 60 61 62 63 62 61 61 60 59 58 59 59 59 60 61 61 62 61 61 60 60 59 58 58
42 36 24 24 27 26 34 31 40 41 44 46 48 50 48 48 50 51 50 50 52 52 54 56 57 58 60 61 61 61 61 61 60 60 59 60 59 60 62 61 61 61 62 61 61 59 58 58 58
41 39 25 16 20 28 33 31 40 45 51 52 50 48 49 49 49 49 49 49 49 50 52 55 56 56 57 59 59 60 61 60 61 61 62 63 63 63 65 63 62 62 62 61 60 60 59 59 58
40 35 41 30 26 22 28 33 43 45 44 44 44 45 45 47 48 48 48 47 47 49 49 52 53 53 55 55 57 58 59 61 62 63 63 64 64 64 63 62 62 61 62 61 61 60 59 59 58
40 44 32 33 21 21 26 28 35 37 41 42 41 42 45 46 46 46 46 46 47 47 49 49 50 50 51 52 53 54 54 55 56 57 57 59 61 63 64 63 62 62 62 61 60 60 60 59 59
37 35 34 35 32 24 19 27 38 42 42 40 41 44 45 46 45 44 44 44 45 46 46 46 47 46 47 48 49 49 50 51 52 53 54 54 55 57 59 61 62 61 61 61 60 60 60 60 59
44 39 39 30 26 31 30 30 42 43 43 43 42 44 45 45 43 42 42 42 42 42 43 43 43 44 44 46 46 47 48 49 49 50 51 51 52 54 54 56 57 60 61 61 61 60 61 59 59
MSLP
1013.45 1012.76 1012.83 1013.20 1015.20 1016.71 1017.66 1017.77 1017.41 1017.34 1017.37 1017.31 1017.30 1017.47 1017.95 1018.21 1018.44 1019.24 1018.55 1018.54 1018.50 1018.73 1019.02 1019.26 1019.40 1019.58 1019.71 1019.86 1020.15 1020.39 1020.53 1020.59 1020.73 1020.89 1021.05 1021.20 1021.43 1021.55 1021.68 1021.82 1021.95 1021.90 1021.92 1022.00 1022.18 1022.34 1022.51 1022.51 1022.48
1013.38 1012.97 1013.29 1014.55 1016.32 1017.76 1018.14 1017.58 1017.30 1017.11 1017.19 1017.26 1017.46 1017.64 1017.85 1018.22 1018.27 1018.61 1018.77 1018.62 1018.54 1018.78 1019.11 1019.29 1019.43 1019.65 1019.81 1020.07 1020.33 1020.58 1020.65 1020.70 1020.75 1020.94 1021.15 1021.33 1021.52 1021.63 1021.88 1022.04 1022.14 1022.17 1022.27 1022.36 1022.49 1022.67 1022.86 1022.86 1022.80
1013.37 1013.53 1014.60 1015.75 1017.41 1017.94 1017.76 1017.36 1017.23 1017.08 1017.04 1017.15 1017.41 1017.67 1017.85 1017.93 1018.09 1018.28 1018.27 1018.43 1018.78 1018.93 1019.16 1019.49 1019.66 1019.80 1019.88 1020.10 1020.45 1020.71 1020.84 1020.89 1020.91 1021.01 1021.19 1021.45 1021.66 1021.83 1022.01 1022.23 1022.36 1022.39 1022.55 1022.68 1022.80 1022.98 1023.15 1023.22 1023.22
1014.20 1014.37 1015.80 1016.48 1017.54 1017.57 1017.39 1017.10 1016.97 1017.06 1017.01 1016.98 1017.24 1017.68 1017.83 1017.69 1017.76 1017.79 1018.03 1018.45 1018.88 1019.18 1019.36 1019.59 1019.77 1019.95 1020.06 1020.23 1020.49 1020.74 1020.93 1021.01 1021.08 1021.06 1021.29 1021.45 1021.74 1021.95 1022.18 1022.43 1022.51 1022.60 1022.76 1022.97 1023.16 1023.26 1023.46 1023.49 1023.53
1015.10 1015.95 1016.95 1017.51 1017.68 1017.39 1017.09 1016.92 1017.02 1017.09 1017.03 1017.08 1017.25 1017.54 1017.72 1017.66 1017.69 1017.96 1018.13 1018.34 1018.95 1019.28 1019.44 1019.72 1019.88 1019.98 1020.28 1020.55 1020.72 1020.87 1021.04 1021.17 1021.25 1021.30 1021.42 1021.57 1021.80 1022.07 1022.24 1022.45 1022.59 1022.70 1022.86 1023.10 1023.31 1023.48 1023.64 1023.73 1023.78
1016.27 1017.15 1018.01 1018.32 1017.87 1017.35 1016.97 1016.85 1017.06 1017.11 1017.07 1017.12 1017.33 1017.71 1017.76 1017.72 1017.91 1018.29 1018.42 1018.60 1018.78 1019.16 1019.54 1019.74 1019.96 1020.16 1020.30 1020.65 1020.90 1021.04 1021.19 1021.29 1021.37 1021.50 1021.56 1021.72 1021.90 1022.18 1022.39 1022.57 1022.67 1022.79 1022.89 1023.16 1023.41 1023.66 1023.82 1023.91 1023.99
1017.31 1018.05 1018.58 1018.54 1018.13 1017.40 1016.88 1016.74 1016.92 1017.00 1017.01 1017.04 1017.27 1017.80 1017.82 1017.86 1018.01 1018.27 1018.61 1018.82 1019.04 1019.31 1019.53 1019.84 1020.06 1020.27 1020.48 1020.67 1020.84 1021.09 1021.30 1021.43 1021.48 1021.54 1021.58 1021.78 1021.99 1022.22 1022.40 1022.73 1022.82 1022.96 1023.13 1023.30 1023.58 1023.80 1023.94 1024.03 1024.10
1017.88 1018.50 1018.93 1018.73 1018.23 1017.42 1016.87 1016.69 1016.50 1016.77 1016.78 1016.93 1016.99 1017.43 1017.73 1017.61 1017.98 1018.52 1018.83 1019.14 1019.43 1019.48 1019.57 1019.82 1020.12 1020.35 1020.51 1020.74 1021.03 1021.16 1021.30 1021.49 1021.68 1021.77 1021.79 1021.97 1022.13 1022.39 1022.58 1022.91 1023.07 1023.16 1023.31 1023.54 1023.72 1023.89 1023.99 1024.08 1024.16
1018.05 1018.94 1019.08 1018.59 1018.20 1017.19 1016.75 1016.69 1016.70 1016.54 1016.68 1016.85 1016.97 1017.15 1017.30 1017.58 1018.17 1018.75 1019.22 1019.39 1019.52 1019.67 1019.66 1019.69 1020.01 1020.36 1020.52 1020.75 1020.97 1021.16 1021.37 1021.48 1021.61 1021.85 1021.99 1022.23 1022.49 1022.56 1022.69 1023.01 1023.20 1023.31 1023.47 1023.63 1023.83 1023.98 1024.10 1024.23 1024.29
1018.60 1019.22 1018.80 1018.11 1017.74 1017.26 1016.99 1016.87 1016.78 1016.83 1016.94 1017.07 1017.11 1017.09 1017.32 1017.70 1018.19 1018.68 1019.06 1019.20 1019.32 1019.41 1019.53 1019.58 1019.81 1020.15 1020.52 1020.66 1020.93 1021.21 1021.39 1021.57 1021.73 1021.79 1022.00 1022.31 1022.61 1022.71 1022.76 1022.93 1023.12 1023.29 1023.46 1023.69 1023.84 1023.96 1024.08 1024.24 1024.38
1018.82 1019.01 1018.49 1017.78 1017.47 1017.28 1017.21 1017.07 1017.07 1017.07 1017.31 1016.98 1017.07 1017.19 1017.81 1018.12 1018.19 1018.41 1018.59 1018.78 1018.76 1018.99 1019.29 1019.35 1019.56 1019.93 1020.21 1020.51 1020.89 1021.12 1021.38 1021.66 1021.77 1021.96 1022.08 1022.23 1022.51 1022.82 1023.00 1023.17 1023.27 1023.43 1023.58 1023.78 1023.89 1024.07 1024.20 1024.33 1024.39
1018.86 1018.61 1018.42 1017.87 1017.47 1017.40 1017.47 1017.40 1017.39 1017.44 1017.04 1016.84 1017.07 1017.47 1017.87 1018.25 1018.39 1018.32 1018.25 1018.16 1018.34 1018.61 1018.73 1018.97 1019.22 1019.56 1019.95 1020.20 1020.62 1020.96 1021.23 1021.50 1021.80 1021.88 1022.12 1022.41 1022.65 1022.86 1022.99 1023.16 1023.22 1023.37 1023.54 1023.79 1023.97 1024.08 1024.09 1024.15 1024.20
1018.77 1018.59 1018.37 1017.95 1017.80 1017.71 1017.73 1017.77 1017.74 1017.56 1017.05 1017.13 1017.36 1017.53 1017.89 1018.19 1018.20 1018.16 1018.14 1018.31 1018.39 1018.16 1018.16 1018.44 1018.68 1019.05 1019.39 1019.91 1020.23 1020.57 1020.85 1021.21 1021.47 1021.76 1021.98 1022.27 1022.54 1022.75 1022.85 1022.96 1023.06 1023.15 1023.36 1023.60 1023.84 1023.98 1024.09 1024.18 1024.15
1018.44 1018.45 1018.43 1018.31 1018.23 1018.11 1018.08 1017.98 1017.87 1017.41 1017.14 1017.40 1017.63 1017.80 1018.05 1018.24 1017.96 1018.15 1018.16 1018.03 1018.05 1018.00 1017.77 1017.82 1018.21 1018.53 1018.96 1019.29 1019.62 1019.93 1020.17 1020.57 1021.13 1021.44 1021.64 1021.92 1022.18 1022.45 1022.74 1022.87 1022.98 1023.11 1023.13 1023.25 1023.48 1023.68 1023.79 1023.86 1023.90
1018.75 1018.96 1018.86 1018.73 1018.60 1018.45 1018.53 1018.50 1017.34 1017.17 1017.24 1017.59 1017.88 1017.98 1018.07 1018.05 1017.93 1017.86 1017.49 1017.57 1017.40 1017.31 1017.42 1017.62 1017.74 1017.82 1018.43 1018.78 1019.13 1019.32 1019.67 1020.07 1020.44 1020.79 1021.11 1021.44 1021.79 1022.10 1022.42 1022.75 1022.93 1022.85 1022.97 1023.10 1023.30 1023.48 1023.62 1023.74 1023.67
1019.37 1019.53 1019.69 1018.88 1018.69 1018.46 1018.71 1017.33 1017.56 1017.35 1017.71 1017.89 1017.90 1018.00 1017.97 1017.80 1017.61 1017.41 1017.04 1016.92 1016.88 1016.77 1016.90 1016.99 1017.27 1017.59 1017.64 1017.93 1018.41 1018.85 1019.15 1019.46 1019.75 1020.16 1020.53 1020.78 1021.15 1021.58 1022.01 1022.36 1022.52 1022.66 1022.87 1023.11 1023.27 1023.25 1023.46 1023.50 1023.48
1020.01 1019.84 1019.87 1019.49 1018.74 1018.72 1018.86 1017.92 1017.51 1017.27 1017.78 1018.23 1018.34 1018.05 1017.89 1017.69 1017.28 1016.96 1016.43 1016.18 1016.03 1015.97 1015.96 1016.26 1016.48 1016.71 1016.93 1017.12 1017.54 1018.11 1018.41 1018.84 1019.07 1019.45 1019.90 1020.26 1020.50 1020.80 1021.21 1021.59 1021.90 1022.19 1022.57 1022.82 1022.96 1023.14 1023.25 1023.24 1023.21
1020.21 1020.59 1020.14 1019.64 1019.03 1018.93 1018.98 1018.29 1017.79 1017.58 1017.73 1018.07 1018.22 1017.99 1017.79 1017.26 1016.62 1016.03 1015.63 1015.35 1015.21 1015.14 1015.26 1015.45 1015.72 1015.76 1016.22 1016.80 1017.24 1017.50 1017.95 1018.17 1018.37 1018.73 1018.98 1019.35 1019.87 1020.23 1020.49 1020.74 1021.22 1021.72 1022.08 1022.44 1022.71 1022.84 1022.84 1022.88 1022.86
1020.03 1020.22 1020.22 1019.79 1019.23 1019.27 1018.98 1018.58 1017.32 1017.36 1017.59 1017.70 1017.53 1017.58 1017.32 1016.87 1015.72 1015.29 1014.81 1014.61 1014.68 1014.70 1014.85 1014.73 1014.97 1015.00 1015.66 1016.23 1016.81 1017.21 1016.95 1017.40 1017.84 1018.06 1018.38 1018.64 1018.91 1019.28 1019.74 1020.03 1020.29 1020.76 1021.16 1021.36 1021.72 1022.16 1022.40 1022.52 1022.71
1020.28 1020.38 1020.34 1020.14 1019.56 1019.56 1019.18 1018.38 1017.46 1016.96 1016.64 1016.64 1016.74 1016.78 1016.53 1016.26 1015.37 1014.76 1014.38 1014.19 1014.22 1014.04 1013.93 1013.97 1013.99 1014.38 1014.64 1015.11 1015.55 1015.94 1016.40 1016.47 1016.61 1017.09 1017.35 1017.65 1018.08 1018.43 1018.74 1019.04 1019.38 1019.72 1020.18 1020.50 1020.84 1021.27 1021.79 1021.93 1022.05
1020.01 1019.92 1020.38 1020.37 1019.94 1019.75 1019.56 1017.44 1016.98 1015.53 1015.52 1015.65 1015.71 1015.59 1015.76 1015.51 1014.89 1014.40 1014.12 1014.04 1014.01 1013.87 1013.39 1013.30 1013.10 1013.27 1013.72 1014.07 1014.86 1015.56 1015.95 1016.16 1016.22 1016.20 1016.61 1016.70 1016.98 1017.49 1017.78 1017.94 1018.20 1018.69 1019.15 1019.54 1019.94 1020.30 1020.63 1021.08 1021.41
1019.64 1019.67 1020.41 1020.67 1020.96 1020.87 1020.19 1017.79 1016.14 1015.52 1015.32 1015.24 1015.13 1015.12 1015.05 1014.81 1014.55 1014.60 1014.27 1013.96 1013.56 1013.01 1012.68 1012.41 1012.41 1012.71 1013.03 1013.71 1014.19 1014.59 1015.06 1015.39 1015.02 1015.31 1015.40 1015.91 1016.41 1016.76 1017.18 1017.61 1017.89 1018.03 1018.37 1018.62 1018.76 1019.13 1019.43 1020.09 1020.16
1018.80 1019.17 1020.01 1020.70 1021.23 1021.39 1020.59 1020.31 1015.76 1015.57 1015.30 1015.12 1014.75 1014.66 1014.32 1014.43 1014.55 1014.44 1014.37 1013.90 1013.21 1012.49 1012.04 1011.93 1011.89 1012.18 1012.45 1012.98 1013.33 1013.92 1014.42 1014.42 1014.78 1015.21 1015.62 1015.93 1015.94 1016.10 1016.37 1016.55 1016.95 1017.40 1017.68 1017.73 1017.98 1018.25 1018.52 1018.79 1019.04
1018.78 1019.61 1020.37 1020.88 1021.48 1021.10 1018.93 1020.35 1014.54 1015.09 1014.72 1014.69 1014.34 1014.05 1014.03 1014.10 1014.19 1014.32 1014.27 1014.14 1013.58 1012.78 1012.03 1011.99 1012.15 1012.27 1012.51 1012.93 1013.50 1013.94 1014.25 1014.53 1015.01 1015.29 1015.61 1015.75 1015.91 1015.97 1015.70 1015.71 1015.90 1016.03 1016.51 1016.72 1016.92 1017.27 1017.64 1017.82 1017.83
1018.41 1019.34 1020.65 1021.07 1020.90 1019.23 1019.22 1019.64 1014.51 1013.88 1013.85 1014.27 1014.30 1014.10 1014.31 1014.25 1014.62 1014.93 1015.12 1014.80 1014.20 1013.64 1012.94 1012.37 1012.40 1012.66 1012.71 1012.92 1013.30 1013.60 1013.86 1014.25 1014.58 1014.80 1015.00 1015.23 1015.38 1015.32 1015.19 1015.30 1015.33 1015.30 1015.23 1015.46 1015.84 1016.32 1016.59 1016.71 1016.95
1017.20 1017.89 1018.49 1019.67 1019.76 1019.14 1018.99 1017.72 1012.93 1013.30 1013.01 1013.30 1013.51 1013.95 1014.45 1014.91 1015.24 1015.37 1015.63 1015.52 1015.35 1014.67 1014.35 1013.86 1013.52 1013.49 1013.34 1013.35 1013.52 1013.70 1013.84 1014.00 1014.24 1014.34 1014.45 1014.49 1014.57 1014.55 1014.47 1014.45 1014.50 1014.46 1014.38 1014.66 1014.94 1015.32 1015.51 1015.71 1015.83
1015.99 1016.56 1017.33 1018.53 1019.73 1019.36 1017.92 1016.34 1014.04 1013.18 1013.40 1013.52 1013.73 1014.24 1014.87 1015.19 1015.61 1015.79 1016.02 1016.06 1016.22 1015.74 1015.65 1015.44 1015.11 1014.98 1014.83 1014.67 1014.37 1014.45 1014.37 1014.39 1014.30 1014.27 1014.23 1014.15 1014.05 1014.08 1013.99 1013.84 1013.88 1013.87 1013.81 1013.92 1014.10 1014.15 1014.39 1014.54 1014.65
1014.94 1015.92 1017.35 1017.83 1018.33 1018.54 1017.32 1016.35 1014.30 1013.46 1013.48 1013.78 1014.38 1014.77 1015.40 1015.67 1016.21 1016.55 1016.72 1016.83 1016.96 1016.91 1016.92 1016.81 1016.67 1016.52 1016.33 1015.94 1015.70 1015.56 1015.33 1015.15 1015.01 1015.02 1014.92 1014.70 1014.41 1014.08 1013.73 1013.40 1013.30 1013.23 1013.24 1013.24 1013.15 1013.30 1013.29 1013.10 1013.37
1015.04 1015.53 1016.12 1016.41 1017.34 1017.11 1016.75 1015.25 1013.77 1013.37 1013.64 1014.26 1014.79 1015.25 1015.75 1016.42 1016.90 1017.31 1017.60 1017.85 1017.94 1017.83 1017.76 1017.87 1017.73 1017.67 1017.37 1017.22 1016.81 1016.62 1016.33 1016.14 1015.68 1015.39 1015.37 1015.21 1015.03 1014.57 1014.04 1013.55 1013.20 1012.94 1012.65 1012.60 1012.57 1012.40 1011.99 1012.46 1012.25
1013.53 1013.72 1014.62 1015.33 1016.10 1016.17 1015.88 1014.60 1013.16 1013.07 1013.50 1014.12 1015.21 1015.83 1016.28 1016.91 1017.62 1018.20 1018.49 1018.70 1018.80 1018.91 1018.82 1018.84 1018.86 1018.67 1018.61 1018.31 1017.87 1017.59 1017.15 1016.81 1016.50 1016.07 1015.77 1015.45 1015.07 1014.77 1014.45 1014.09 1013.46 1012.78 1012.31 1012.00 1011.73 1011.70 1011.06 1011.40 1011.49
Wind_Speed
10 10 1 5 6 6 1 3 1 1 2 3 1 4 4 2 2 3 4 5 7 8 6 9 13 14 15 15 13 10 11 11 12 14 15 14 13 13 13 13 12 12 12 14 14 15 14 12 12
9 5 5 3 7 4 4 3 3 2 3 6 3 2 2 1 1 2 4 4 7 8 6 6 11 13 14 14 12 11 9 10 11 11 15 14 13 13 13 12 11 11 11 12 13 13 11 13 12
6 2 4 5 4 4 4 3 3 2 3 3 2 2 3 1 2 7 2 9 6 6 6 6 11 13 13 14 12 10 8 8 8 13 13 14 13 12 12 11 11 10 10 11 11 12 10 12 12
6 5 5 5 3 1 2 5 4 2 1 2 3 1 2 1 4 7 9 9 8 6 5 8 11 12 12 13 12 12 10 7 6 12 12 15 14 13 11 11 10 9 10 9 10 10 9 10 12
4 4 5 4 2 2 2 4 5 2 0 1 2 2 1 1 3 7 10 9 9 6 6 7 10 12 11 10 10 10 9 8 5 10 11 15 16 13 12 11 10 10 10 9 9 8 8 9 9
5 3 5 2 3 3 1 3 4 1 1 1 2 3 3 1 5 6 7 8 7 10 6 6 8 9 11 10 9 9 9 8 5 5 12 11 12 12 12 10 9 9 9 8 7 7 6 7 7
5 3 3 3 2 1 2 6 4 4 2 2 5 2 3 1 4 6 6 5 6 6 8 5 5 6 8 8 9 9 8 7 4 2 11 9 11 10 12 9 6 8 7 6 6 5 4 4 5
4 4 3 2 3 2 1 4 2 5 5 2 4 2 2 3 8 7 6 5 5 5 9 8 5 5 5 6 7 7 8 7 6 5 7 7 7 7 9 8 6 6 5 5 5 3 2 1 2
2 5 1 3 4 3 1 2 1 0 4 1 3 2 3 6 8 7 3 3 3 5 8 9 6 5 5 5 5 6 7 7 7 6 6 6 3 4 6 4 6 6 4 3 4 3 2 1 3
4 4 8 3 3 2 0 1 4 2 2 2 2 3 2 8 8 9 8 10 8 10 10 8 9 6 5 4 5 5 4 4 3 4 5 3 4 3 4 4 3 5 7 4 4 4 3 1 1
2 5 4 3 4 1 3 1 1 4 3 6 7 1 2 3 8 10 9 9 14 12 9 10 9 6 6 5 3 2 2 2 3 5 4 4 3 3 2 1 1 0 1 1 0 2 1 2 2
3 5 4 2 1 2 1 3 4 5 4 3 2 2 5 7 9 11 12 11 10 9 11 8 8 7 6 4 4 4 4 3 3 4 5 3 2 3 3 3 4 3 2 3 3 2 3 4 4
4 4 5 4 2 2 1 4 5 5 8 4 4 2 7 7 8 8 8 6 6 10 11 10 9 9 8 7 5 5 7 5 4 4 5 4 4 4 4 4 4 4 3 3 4 4 4 4 5
3 5 3 3 5 3 3 4 4 4 5 8 5 6 6 8 12 4 6 8 9 11 12 11 11 10 8 9 9 7 7 9 5 4 5 6 4 4 4 4 4 4 4 4 4 4 4 4 4
2 3 3 4 4 5 5 9 11 8 2 6 7 7 7 9 8 11 12 11 11 11 10 11 12 12 11 11 9 7 7 7 8 7 7 8 6 5 5 4 4 4 4 5 4 4 3 4 3
4 3 3 4 9 6 9 19 2 8 6 10 10 8 8 9 9 8 12 11 9 10 11 11 11 12 13 12 9 7 7 7 7 7 7 9 9 7 6 4 5 4 3 3 3 4 4 4 4
2 3 5 6 9 5 8 10 4 2 8 8 8 9 7 8 9 11 11 10 12 12 13 13 13 15 15 13 10 9 9 8 8 7 7 9 10 10 8 6 5 5 4 4 4 4 4 4 4
6 4 5 6 3 6 6 12 9 7 4 8 8 9 9 10 13 10 11 10 10 10 11 12 11 15 13 9 8 6 5 7 7 7 8 10 9 10 9 7 6 5 5 4 4 6 4 4 4
6 5 8 2 3 3 8 12 19 9 5 8 12 8 10 12 13 10 10 9 8 8 8 12 13 14 10 9 8 7 11 8 7 7 10 10 10 11 11 8 7 7 8 9 8 4 6 4 3
4 4 5 4 3 3 5 12 14 10 9 10 11 10 11 9 11 13 10 8 8 9 11 12 14 13 13 10 9 7 6 8 8 7 10 11 11 11 11 11 9 10 8 8 9 8 4 4 5
13 16 4 3 3 3 5 18 10 11 5 7 8 10 7 12 14 10 9 8 7 9 11 12 14 15 14 15 6 3 2 0 4 7 8 11 13 12 13 12 11 9 9 9 10 9 11 8 4
16 8 7 5 3 5 3 13 7 4 5 5 8 8 10 12 7 7 9 9 9 11 9 11 11 12 12 12 9 12 10 10 9 7 7 8 11 11 11 11 10 11 7 11 10 9 10 8 11
6 8 12 6 4 3 8 4 5 1 4 7 7 9 10 6 6 8 7 7 9 8 7 8 8 8 9 11 13 9 10 9 4 3 4 6 7 11 11 12 12 11 9 11 11 9 11 10 9
7 6 4 4 9 12 15 8 17 12 7 5 7 7 4 3 4 1 5 6 6 8 5 3 4 5 5 6 8 8 9 6 1 2 3 4 5 5 11 12 12 12 11 12 11 12 13 12 11
9 9 3 6 9 14 11 9 23 3 4 6 8 9 4 3 5 6 8 8 9 11 11 6 3 2 2 5 6 7 6 6 7 6 4 5 4 5 9 11 11 11 13 13 11 11 12 13 12
22 15 6 9 6 8 4 12 19 4 12 12 10 4 5 6 4 6 6 7 8 10 12 14 15 14 10 6 2 2 5 3 4 5 5 5 6 7 8 9 12 13 12 11 11 9 10 12 12
16 18 8 3 1 2 6 8 11 7 7 5 3 6 7 7 5 6 7 8 8 12 13 13 15 15 14 12 10 11 10 9 5 5 4 4 6 7 7 8 11 12 12 12 11 9 12 12 12
9 8 9 7 8 10 5 4 10 2 6 5 6 9 8 6 7 7 7 8 8 9 11 13 14 14 13 12 11 9 9 9 8 8 9 9 9 9 9 8 8 11 12 12 11 11 12 13 11
9 9 6 4 8 5 3 8 9 11 6 8 8 9 8 7 7 7 7 8 9 11 12 12 13 14 14 12 10 10 10 9 7 7 8 8 9 10 11 10 10 9 10 10 11 14 13 14 14
19 16 19 7 10 5 2 6 4 7 8 10 9 8 6 8 7 8 9 10 12 12 12 12 12 13 12 11 10 10 9 9 9 9 9 8 9 10 10 11 11 11 10 9 12 14 12 13 15
Wind_Direction
330 318 32 42 56 65 349 267 285 123 95 311 38 139 158 81 162 208 307 167 130 137 148 155 153 146 141 134 135 138 141 132 126 119 113 106 106 100 94 101 104 105 106 103 103 95 86 73 83
322 326 37 78 84 72 279 266 218 192 141 129 82 55 72 147 156 99 112 178 143 141 143 146 145 144 137 133 139 147 155 146 136 133 125 114 113 106 104 101 110 110 106 108 105 98 80 67 78
337 28 72 85 102 150 184 212 194 203 153 190 101 95 163 204 175 170 212 142 134 139 142 146 140 146 144 139 145 151 155 152 136 129 123 123 116 114 111 112 116 114 110 110 107 100 80 66 63
1 7 36 78 97 234 223 192 191 155 49 99 130 39 319 226 170 180 142 136 134 139 136 153 152 153 149 148 152 157 154 161 158 140 138 134 125 120 114 119 121 118 111 116 109 103 90 63 62
30 56 47 69 334 296 254 186 156 163 136 126 171 242 232 7 64 136 144 142 148 147 146 159 159 159 154 154 158 155 160 163 160 134 130 139 131 130 131 131 136 137 124 125 124 115 98 79 67
29 87 54 116 312 300 143 148 133 200 125 166 86 140 266 109 128 160 148 149 147 161 156 160 168 165 157 162 166 163 163 167 188 162 128 138 130 136 136 143 147 144 138 144 134 118 99 90 78
92 66 164 170 223 267 175 149 163 180 159 248 143 126 275 224 181 150 140 130 139 148 164 162 173 174 167 168 169 168 166 172 170 209 136 139 139 147 136 141 158 160 151 155 139 126 104 93 87
101 86 114 265 209 214 182 180 115 160 222 73 158 226 307 234 147 121 116 128 146 160 180 180 175 177 173 173 176 173 171 172 180 136 115 118 146 135 121 146 168 184 178 164 156 149 143 118 65
100 65 229 220 168 238 202 146 107 185 123 120 191 183 219 125 121 116 122 147 157 193 193 192 183 183 179 179 185 178 182 180 176 166 157 120 100 108 123 147 190 185 189 167 184 196 223 343 359
91 127 213 195 226 246 19 210 184 140 127 223 248 224 98 135 152 165 180 195 198 205 206 202 200 182 179 181 172 191 187 185 192 181 178 158 148 156 157 178 221 216 183 192 214 224 236 330 310
139 177 222 261 195 217 324 336 162 149 224 216 208 222 128 171 178 182 197 200 204 207 209 205 203 188 178 181 176 177 175 187 190 197 192 184 164 175 168 184 277 100 224 182 268 301 304 269 274
179 216 193 254 217 120 217 341 312 176 221 273 124 94 177 196 203 205 209 201 184 192 206 198 193 188 191 171 179 183 187 184 199 199 197 179 188 195 196 196 207 214 195 210 221 237 241 248 260
207 205 189 242 219 264 154 235 231 246 264 266 331 262 212 217 237 236 238 242 226 206 202 202 189 194 192 186 179 179 203 203 198 196 196 182 191 202 198 213 204 209 198 206 217 228 244 259 263
216 197 219 223 249 256 232 264 162 242 246 255 247 231 245 225 234 260 246 230 215 229 222 197 197 199 188 197 190 194 198 209 191 195 198 197 194 201 206 213 216 224 206 208 209 216 226 237 239
229 292 335 206 220 242 163 277 232 222 220 244 232 253 261 240 252 235 240 232 223 227 229 214 204 189 194 202 202 196 196 198 205 202 193 197 197 201 201 214 226 225 219 225 216 236 239 254 255
171 166 195 237 174 240 142 260 153 217 195 246 260 259 262 261 246 250 251 239 230 229 212 213 206 203 199 200 199 202 197 197 204 202 199 199 199 196 201 210 223 222 218 221 226 218 238 240 239
273 215 221 300 204 164 187 269 265 175 172 234 262 271 268 276 268 255 251 239 238 228 226 214 203 206 207 204 196 200 200 200 205 195 198 206 205 200 206 210 219 197 208 211 217 234 210 235 249
192 197 235 211 260 218 208 260 253 265 231 239 241 263 284 278 266 252 243 244 240 234 226 221 209 211 206 202 203 197 195 206 205 202 205 197 205 206 205 210 201 190 204 217 220 230 220 228 237
179 186 204 231 260 208 234 247 264 260 222 255 261 242 248 260 269 262 256 248 241 241 218 214 208 210 190 196 195 210 211 204 212 206 209 202 205 201 205 217 200 193 210 213 205 204 223 247 196
180 190 214 295 242 210 289 266 263 248 234 218 242 249 244 252 269 268 262 254 237 243 226 222 213 207 201 200 208 208 198 219 211 204 210 205 205 203 204 208 210 205 212 211 206 202 213 230 172
223 224 142 185 356 300 349 288 239 259 226 220 239 234 244 238 254 262 274 277 282 256 241 225 217 208 208 207 191 155 87 104 187 207 207 210 204 205 208 209 213 205 208 224 214 205 207 233 207
224 176 164 182 97 241 130 278 231 229 249 207 241 239 237 247 268 279 288 293 281 264 248 225 218 208 208 195 194 199 210 223 226 220 205 200 205 212 213 224 221 223 210 224 217 205 212 206 236
219 152 194 163 175 30 244 287 288 242 284 267 259 252 247 271 272 281 292 286 296 288 249 224 210 193 199 193 205 201 210 230 230 215 225 206 188 205 208 210 214 221 221 229 227 213 206 211 228
133 77 80 114 221 242 231 199 264 231 197 218 248 253 294 276 302 3 0 329 346 341 350 247 205 217 185 180 205 208 229 249 269 238 224 213 215 212 219 214 215 220 222 227 226 225 222 220 225
164 133 182 214 209 239 150 177 246 266 278 238 240 244 148 126 91 51 27 9 5 9 16 40 77 30 167 183 182 211 219 206 217 223 213 227 227 223 227 216 217 222 226 227 226 224 224 225 227
201 197 163 195 207 232 183 214 237 212 241 269 214 201 142 124 83 74 39 30 5 26 27 45 54 52 43 39 350 256 240 226 219 227 227 236 235 242 239 225 227 228 228 228 223 226 228 230 234
190 213 197 108 51 85 213 281 304 237 250 260 280 121 150 138 105 86 59 49 28 45 38 43 50 48 42 42 48 44 39 29 354 314 281 262 264 263 256 233 232 231 230 228 227 225 229 230 232
170 140 192 216 208 230 258 256 234 310 261 195 151 150 152 136 105 75 59 55 50 44 47 43 40 40 32 31 29 29 29 29 27 25 15 1 347 329 303 275 247 236 229 229 221 235 238 227 231
163 206 213 178 194 204 195 249 217 226 189 172 164 145 150 131 98 74 62 49 50 50 46 44 38 33 27 20 18 19 15 10 16 26 12 3 345 343 339 331 305 262 248 236 232 238 235 241 242
212 213 204 199 207 209 118 266 303 226 191 156 154 148 138 92 86 73 68 59 48 41 35 40 33 32 19 7 8 11 11 8 7 7 360 354 350 341 335 326 321 313 292 260 242 244 243 243 244